Year,Month,Day,Hour,Minute,Value (Times are PST for temperature in C)
2021,06,24,00,00,18.30
2021,06,24,00,01,18.30
2021,06,24,00,02,18.30
2021,06,24,00,03,18.30
2021,06,24,00,04,18.20
2021,06,24,00,05,18.30
2021,06,24,00,06,18.30
2021,06,24,00,07,18.30
2021,06,24,00,08,18.30
2021,06,24,00,09,18.30
2021,06,24,00,10,18.30
2021,06,24,00,11,18.30
2021,06,24,00,12,18.30
2021,06,24,00,13,18.30
2021,06,24,00,14,18.20
2021,06,24,00,15,18.20
2021,06,24,00,16,18.20
2021,06,24,00,17,18.20
2021,06,24,00,18,18.20
2021,06,24,00,19,18.20
2021,06,24,00,20,18.10
2021,06,24,00,21,18.10
2021,06,24,00,22,18.10
2021,06,24,00,23,18.10
2021,06,24,00,24,18.10
2021,06,24,00,25,18.10
2021,06,24,00,26,18.10
2021,06,24,00,27,18.10
2021,06,24,00,28,18.10
2021,06,24,00,29,18.00
2021,06,24,00,30,18.00
2021,06,24,00,31,18.00
2021,06,24,00,32,18.00
2021,06,24,00,33,18.00
2021,06,24,00,34,18.00
2021,06,24,00,35,18.00
2021,06,24,00,36,17.90
2021,06,24,00,37,17.90
2021,06,24,00,38,17.90
2021,06,24,00,39,17.90
2021,06,24,00,40,17.90
2021,06,24,00,41,17.80
2021,06,24,00,42,17.80
2021,06,24,00,43,17.80
2021,06,24,00,44,17.80
2021,06,24,00,45,17.80
2021,06,24,00,46,17.80
2021,06,24,00,47,17.80
2021,06,24,00,48,17.80
2021,06,24,00,49,17.80
2021,06,24,00,50,17.80
2021,06,24,00,51,17.80
2021,06,24,00,52,17.70
2021,06,24,00,53,17.80
2021,06,24,00,54,17.80
2021,06,24,00,55,17.80
2021,06,24,00,56,17.80
2021,06,24,00,57,17.80
2021,06,24,00,58,17.80
2021,06,24,00,59,17.80
2021,06,24,01,00,17.80
2021,06,24,01,01,17.80
2021,06,24,01,02,17.80
2021,06,24,01,03,17.80
2021,06,24,01,04,17.80
2021,06,24,01,05,17.80
2021,06,24,01,06,17.80
2021,06,24,01,07,17.80
2021,06,24,01,08,17.70
2021,06,24,01,09,17.70
2021,06,24,01,10,17.70
2021,06,24,01,11,17.70
2021,06,24,01,12,17.70
2021,06,24,01,13,17.70
2021,06,24,01,14,17.70
2021,06,24,01,15,17.70
2021,06,24,01,16,17.70
2021,06,24,01,17,17.70
2021,06,24,01,18,17.70
2021,06,24,01,19,17.70
2021,06,24,01,20,17.70
2021,06,24,01,21,17.60
2021,06,24,01,22,17.60
2021,06,24,01,23,17.60
2021,06,24,01,24,17.60
2021,06,24,01,25,17.60
2021,06,24,01,26,17.60
2021,06,24,01,27,17.60
2021,06,24,01,28,17.60
2021,06,24,01,29,17.60
2021,06,24,01,30,17.60
2021,06,24,01,31,17.60
2021,06,24,01,32,17.60
2021,06,24,01,33,17.60
2021,06,24,01,34,17.50
2021,06,24,01,35,17.50
2021,06,24,01,36,17.60
2021,06,24,01,37,17.60
2021,06,24,01,38,17.60
2021,06,24,01,39,17.60
2021,06,24,01,40,17.60
2021,06,24,01,41,17.60
2021,06,24,01,42,17.60
2021,06,24,01,43,17.60
2021,06,24,01,44,17.60
2021,06,24,01,45,17.60
2021,06,24,01,46,17.60
2021,06,24,01,47,17.60
2021,06,24,01,48,17.50
2021,06,24,01,49,17.60
2021,06,24,01,50,17.50
2021,06,24,01,51,17.50
2021,06,24,01,52,17.50
2021,06,24,01,53,17.50
2021,06,24,01,54,17.50
2021,06,24,01,55,17.50
2021,06,24,01,56,17.50
2021,06,24,01,57,17.50
2021,06,24,01,58,17.50
2021,06,24,01,59,17.50
2021,06,24,02,00,17.50
2021,06,24,02,01,17.50
2021,06,24,02,02,17.40
2021,06,24,02,03,17.40
2021,06,24,02,04,17.40
2021,06,24,02,05,17.40
2021,06,24,02,06,17.40
2021,06,24,02,07,17.40
2021,06,24,02,08,17.40
2021,06,24,02,09,17.40
2021,06,24,02,10,17.40
2021,06,24,02,11,17.40
2021,06,24,02,12,17.40
2021,06,24,02,13,17.40
2021,06,24,02,14,17.40
2021,06,24,02,15,17.40
2021,06,24,02,16,17.30
2021,06,24,02,17,17.40
2021,06,24,02,18,17.40
2021,06,24,02,19,17.40
2021,06,24,02,20,17.40
2021,06,24,02,21,17.40
2021,06,24,02,22,17.40
2021,06,24,02,23,17.30
2021,06,24,02,24,17.30
2021,06,24,02,25,17.30
2021,06,24,02,26,17.30
2021,06,24,02,27,17.30
2021,06,24,02,28,17.30
2021,06,24,02,29,17.30
2021,06,24,02,30,17.30
2021,06,24,02,31,17.30
2021,06,24,02,32,17.30
2021,06,24,02,33,17.30
2021,06,24,02,34,17.30
2021,06,24,02,35,17.20
2021,06,24,02,36,17.20
2021,06,24,02,37,17.20
2021,06,24,02,38,17.20
2021,06,24,02,39,17.20
2021,06,24,02,40,17.20
2021,06,24,02,41,17.20
2021,06,24,02,42,17.20
2021,06,24,02,43,17.20
2021,06,24,02,44,17.20
2021,06,24,02,45,17.20
2021,06,24,02,46,17.20
2021,06,24,02,47,17.20
2021,06,24,02,48,17.20
2021,06,24,02,49,17.20
2021,06,24,02,50,17.20
2021,06,24,02,51,17.20
2021,06,24,02,52,17.20
2021,06,24,02,53,17.10
2021,06,24,02,54,17.10
2021,06,24,02,55,17.10
2021,06,24,02,56,17.10
2021,06,24,02,57,17.10
2021,06,24,02,58,17.10
2021,06,24,02,59,17.10
2021,06,24,03,00,17.10
2021,06,24,03,01,17.10
2021,06,24,03,02,17.10
2021,06,24,03,03,17.00
2021,06,24,03,04,17.00
2021,06,24,03,05,17.00
2021,06,24,03,06,17.00
2021,06,24,03,07,17.00
2021,06,24,03,08,17.00
2021,06,24,03,09,17.00
2021,06,24,03,10,16.90
2021,06,24,03,11,16.90
2021,06,24,03,12,16.90
2021,06,24,03,13,16.90
2021,06,24,03,14,16.90
2021,06,24,03,15,16.90
2021,06,24,03,16,16.90
2021,06,24,03,17,16.90
2021,06,24,03,18,16.90
2021,06,24,03,19,16.80
2021,06,24,03,20,16.80
2021,06,24,03,21,16.80
2021,06,24,03,22,16.80
2021,06,24,03,23,16.80
2021,06,24,03,24,16.80
2021,06,24,03,25,16.80
2021,06,24,03,26,16.80
2021,06,24,03,27,16.80
2021,06,24,03,28,16.80
2021,06,24,03,29,16.80
2021,06,24,03,30,16.80
2021,06,24,03,31,16.70
2021,06,24,03,32,16.70
2021,06,24,03,33,16.70
2021,06,24,03,34,16.70
2021,06,24,03,35,16.70
2021,06,24,03,36,16.70
2021,06,24,03,37,16.70
2021,06,24,03,38,16.70
2021,06,24,03,39,16.70
2021,06,24,03,40,16.70
2021,06,24,03,41,16.60
2021,06,24,03,42,16.60
2021,06,24,03,43,16.60
2021,06,24,03,44,16.60
2021,06,24,03,45,16.60
2021,06,24,03,46,16.60
2021,06,24,03,47,16.60
2021,06,24,03,48,16.60
2021,06,24,03,49,16.60
2021,06,24,03,50,16.60
2021,06,24,03,51,16.60
2021,06,24,03,52,16.60
2021,06,24,03,53,16.50
2021,06,24,03,54,16.50
2021,06,24,03,55,16.50
2021,06,24,03,56,16.50
2021,06,24,03,57,16.50
2021,06,24,03,58,16.50
2021,06,24,03,59,16.50
2021,06,24,04,00,16.50
2021,06,24,04,01,16.50
2021,06,24,04,02,16.40
2021,06,24,04,03,16.40
2021,06,24,04,04,16.40
2021,06,24,04,05,16.40
2021,06,24,04,06,16.40
2021,06,24,04,07,16.40
2021,06,24,04,08,16.30
2021,06,24,04,09,16.30
2021,06,24,04,10,16.30
2021,06,24,04,11,16.30
2021,06,24,04,12,16.30
2021,06,24,04,13,16.30
2021,06,24,04,14,16.30
2021,06,24,04,15,16.30
2021,06,24,04,16,16.30
2021,06,24,04,17,16.30
2021,06,24,04,18,16.30
2021,06,24,04,19,16.30
2021,06,24,04,20,16.30
2021,06,24,04,21,16.30
2021,06,24,04,22,16.30
2021,06,24,04,23,16.20
2021,06,24,04,24,16.20
2021,06,24,04,25,16.20
2021,06,24,04,26,16.20
2021,06,24,04,27,16.20
2021,06,24,04,28,16.20
2021,06,24,04,29,16.20
2021,06,24,04,30,16.20
2021,06,24,04,31,16.20
2021,06,24,04,32,16.20
2021,06,24,04,33,16.20
2021,06,24,04,34,16.20
2021,06,24,04,35,16.20
2021,06,24,04,36,16.20
2021,06,24,04,37,16.20
2021,06,24,04,38,16.20
2021,06,24,04,39,16.20
2021,06,24,04,40,16.20
2021,06,24,04,41,16.20
2021,06,24,04,42,16.10
2021,06,24,04,43,16.10
2021,06,24,04,44,16.10
2021,06,24,04,45,16.10
2021,06,24,04,46,16.10
2021,06,24,04,47,16.10
2021,06,24,04,48,16.10
2021,06,24,04,49,16.10
2021,06,24,04,50,16.10
2021,06,24,04,51,16.10
2021,06,24,04,52,16.10
2021,06,24,04,53,16.10
2021,06,24,04,54,16.10
2021,06,24,04,55,16.10
2021,06,24,04,56,16.10
2021,06,24,04,57,16.10
2021,06,24,04,58,16.00
2021,06,24,04,59,16.00
2021,06,24,05,00,16.00
2021,06,24,05,01,15.90
2021,06,24,05,02,15.90
2021,06,24,05,03,15.90
2021,06,24,05,04,15.90
2021,06,24,05,05,15.90
2021,06,24,05,06,15.90
2021,06,24,05,07,15.90
2021,06,24,05,08,15.90
2021,06,24,05,09,15.90
2021,06,24,05,10,15.90
2021,06,24,05,11,15.90
2021,06,24,05,12,15.90
2021,06,24,05,13,15.90
2021,06,24,05,14,15.90
2021,06,24,05,15,15.90
2021,06,24,05,16,15.90
2021,06,24,05,17,15.90
2021,06,24,05,18,15.80
2021,06,24,05,19,15.80
2021,06,24,05,20,15.80
2021,06,24,05,21,15.80
2021,06,24,05,22,15.80
2021,06,24,05,23,15.80
2021,06,24,05,24,15.80
2021,06,24,05,25,15.80
2021,06,24,05,26,15.80
2021,06,24,05,27,15.80
2021,06,24,05,28,15.80
2021,06,24,05,29,15.80
2021,06,24,05,30,15.80
2021,06,24,05,31,15.80
2021,06,24,05,32,15.80
2021,06,24,05,33,15.80
2021,06,24,05,34,15.70
2021,06,24,05,35,15.70
2021,06,24,05,36,15.70
2021,06,24,05,37,15.70
2021,06,24,05,38,15.70
2021,06,24,05,39,15.70
2021,06,24,05,40,15.70
2021,06,24,05,41,15.70
2021,06,24,05,42,15.70
2021,06,24,05,43,15.70
2021,06,24,05,44,15.70
2021,06,24,05,45,15.70
2021,06,24,05,46,15.70
2021,06,24,05,47,15.70
2021,06,24,05,48,15.70
2021,06,24,05,49,15.70
2021,06,24,05,50,15.70
2021,06,24,05,51,15.70
2021,06,24,05,52,15.70
2021,06,24,05,53,15.70
2021,06,24,05,54,15.70
2021,06,24,05,55,15.80
2021,06,24,05,56,15.80
2021,06,24,05,57,15.80
2021,06,24,05,58,15.80
2021,06,24,05,59,15.80
2021,06,24,06,00,15.80
2021,06,24,06,01,15.80
2021,06,24,06,02,15.80
2021,06,24,06,03,15.80
2021,06,24,06,04,15.90
2021,06,24,06,05,15.90
2021,06,24,06,06,15.90
2021,06,24,06,07,15.90
2021,06,24,06,08,15.90
2021,06,24,06,09,16.00
2021,06,24,06,10,16.00
2021,06,24,06,11,16.00
2021,06,24,06,12,16.00
2021,06,24,06,13,16.00
2021,06,24,06,14,16.00
2021,06,24,06,15,16.10
2021,06,24,06,16,16.00
2021,06,24,06,17,16.10
2021,06,24,06,18,16.10
2021,06,24,06,19,16.10
2021,06,24,06,20,16.10
2021,06,24,06,21,16.10
2021,06,24,06,22,16.10
2021,06,24,06,23,16.10
2021,06,24,06,24,16.10
2021,06,24,06,25,16.10
2021,06,24,06,26,16.10
2021,06,24,06,27,16.20
2021,06,24,06,28,16.20
2021,06,24,06,29,16.20
2021,06,24,06,30,16.20
2021,06,24,06,31,16.20
2021,06,24,06,32,16.20
2021,06,24,06,33,16.20
2021,06,24,06,34,16.30
2021,06,24,06,35,16.30
2021,06,24,06,36,16.30
2021,06,24,06,37,16.30
2021,06,24,06,38,16.30
2021,06,24,06,39,16.30
2021,06,24,06,40,16.30
2021,06,24,06,41,16.30
2021,06,24,06,42,16.30
2021,06,24,06,43,16.30
2021,06,24,06,44,16.30
2021,06,24,06,45,16.30
2021,06,24,06,46,16.30
2021,06,24,06,47,16.40
2021,06,24,06,48,16.40
2021,06,24,06,49,16.40
2021,06,24,06,50,16.40
2021,06,24,06,51,16.40
2021,06,24,06,52,16.40
2021,06,24,06,53,16.40
2021,06,24,06,54,16.40
2021,06,24,06,55,16.40
2021,06,24,06,56,16.40
2021,06,24,06,57,16.40
2021,06,24,06,58,16.40
2021,06,24,06,59,16.50
2021,06,24,07,00,16.50
2021,06,24,07,01,16.50
2021,06,24,07,02,16.60
2021,06,24,07,03,16.60
2021,06,24,07,04,16.60
2021,06,24,07,05,16.70
2021,06,24,07,06,16.70
2021,06,24,07,07,16.80
2021,06,24,07,08,16.80
2021,06,24,07,09,16.90
2021,06,24,07,10,16.90
2021,06,24,07,11,16.90
2021,06,24,07,12,17.00
2021,06,24,07,13,17.00
2021,06,24,07,14,17.10
2021,06,24,07,15,17.10
2021,06,24,07,16,17.10
2021,06,24,07,17,17.20
2021,06,24,07,18,17.20
2021,06,24,07,19,17.20
2021,06,24,07,20,17.20
2021,06,24,07,21,17.30
2021,06,24,07,22,17.30
2021,06,24,07,23,17.30
2021,06,24,07,24,17.30
2021,06,24,07,25,17.40
2021,06,24,07,26,17.40
2021,06,24,07,27,17.40
2021,06,24,07,28,17.40
2021,06,24,07,29,17.40
2021,06,24,07,30,17.40
2021,06,24,07,31,17.50
2021,06,24,07,32,17.50
2021,06,24,07,33,17.50
2021,06,24,07,34,17.50
2021,06,24,07,35,17.60
2021,06,24,07,36,17.60
2021,06,24,07,37,17.60
2021,06,24,07,38,17.60
2021,06,24,07,39,17.70
2021,06,24,07,40,17.70
2021,06,24,07,41,17.70
2021,06,24,07,42,17.70
2021,06,24,07,43,17.80
2021,06,24,07,44,17.80
2021,06,24,07,45,17.80
2021,06,24,07,46,17.80
2021,06,24,07,47,17.80
2021,06,24,07,48,17.80
2021,06,24,07,49,17.90
2021,06,24,07,50,17.90
2021,06,24,07,51,17.90
2021,06,24,07,52,18.00
2021,06,24,07,53,18.00
2021,06,24,07,54,18.10
2021,06,24,07,55,18.10
2021,06,24,07,56,18.10
2021,06,24,07,57,18.10
2021,06,24,07,58,18.10
2021,06,24,07,59,18.10
2021,06,24,08,00,18.10
2021,06,24,08,01,18.10
2021,06,24,08,02,18.10
2021,06,24,08,03,18.20
2021,06,24,08,04,18.20
2021,06,24,08,05,18.20
2021,06,24,08,06,18.30
2021,06,24,08,07,18.30
2021,06,24,08,08,18.30
2021,06,24,08,09,18.30
2021,06,24,08,10,18.30
2021,06,24,08,11,18.40
2021,06,24,08,12,18.40
2021,06,24,08,13,18.40
2021,06,24,08,14,18.50
2021,06,24,08,15,18.50
2021,06,24,08,16,18.60
2021,06,24,08,17,18.60
2021,06,24,08,18,18.70
2021,06,24,08,19,18.70
2021,06,24,08,20,18.70
2021,06,24,08,21,18.70
2021,06,24,08,22,18.80
2021,06,24,08,23,18.80
2021,06,24,08,24,18.90
2021,06,24,08,25,18.90
2021,06,24,08,26,18.90
2021,06,24,08,27,19.00
2021,06,24,08,28,19.00
2021,06,24,08,29,19.10
2021,06,24,08,30,19.10
2021,06,24,08,31,19.20
2021,06,24,08,32,19.20
2021,06,24,08,33,19.20
2021,06,24,08,34,19.30
2021,06,24,08,35,19.30
2021,06,24,08,36,19.40
2021,06,24,08,37,19.50
2021,06,24,08,38,19.50
2021,06,24,08,39,19.60
2021,06,24,08,40,19.60
2021,06,24,08,41,19.70
2021,06,24,08,42,19.80
2021,06,24,08,43,19.80
2021,06,24,08,44,19.90
2021,06,24,08,45,19.90
2021,06,24,08,46,20.00
2021,06,24,08,47,20.00
2021,06,24,08,48,20.10
2021,06,24,08,49,20.10
2021,06,24,08,50,20.10
2021,06,24,08,51,20.20
2021,06,24,08,52,20.30
2021,06,24,08,53,20.40
2021,06,24,08,54,20.50
2021,06,24,08,55,20.60
2021,06,24,08,56,20.80
2021,06,24,08,57,20.90
2021,06,24,08,58,20.90
2021,06,24,08,59,21.00
2021,06,24,09,00,21.10
2021,06,24,09,01,21.20
2021,06,24,09,02,21.20
2021,06,24,09,03,21.30
2021,06,24,09,04,21.40
2021,06,24,09,05,21.50
2021,06,24,09,06,21.60
2021,06,24,09,07,21.70
2021,06,24,09,08,21.70
2021,06,24,09,09,21.80
2021,06,24,09,10,21.80
2021,06,24,09,11,22.00
2021,06,24,09,12,22.00
2021,06,24,09,13,22.10
2021,06,24,09,14,22.20
2021,06,24,09,15,22.20
2021,06,24,09,16,22.30
2021,06,24,09,17,22.30
2021,06,24,09,18,22.30
2021,06,24,09,19,22.30
2021,06,24,09,20,22.30
2021,06,24,09,21,22.20
2021,06,24,09,22,22.10
2021,06,24,09,23,22.00
2021,06,24,09,24,21.90
2021,06,24,09,25,21.80
2021,06,24,09,26,21.80
2021,06,24,09,27,21.80
2021,06,24,09,28,21.80
2021,06,24,09,29,21.80
2021,06,24,09,30,21.80
2021,06,24,09,31,21.90
2021,06,24,09,32,21.90
2021,06,24,09,33,21.90
2021,06,24,09,34,21.90
2021,06,24,09,35,22.00
2021,06,24,09,36,22.10
2021,06,24,09,37,22.10
2021,06,24,09,38,22.20
2021,06,24,09,39,22.20
2021,06,24,09,40,22.30
2021,06,24,09,41,22.30
2021,06,24,09,42,22.30
2021,06,24,09,43,22.40
2021,06,24,09,44,22.40
2021,06,24,09,45,22.50
2021,06,24,09,46,22.50
2021,06,24,09,47,22.60
2021,06,24,09,48,22.60
2021,06,24,09,49,22.60
2021,06,24,09,50,22.70
2021,06,24,09,51,22.70
2021,06,24,09,52,22.80
2021,06,24,09,53,22.80
2021,06,24,09,54,22.80
2021,06,24,09,55,22.80
2021,06,24,09,56,22.80
2021,06,24,09,57,22.70
2021,06,24,09,58,22.70
2021,06,24,09,59,22.70
2021,06,24,10,00,22.70
2021,06,24,10,01,22.70
2021,06,24,10,02,22.70
2021,06,24,10,03,22.70
2021,06,24,10,04,22.70
2021,06,24,10,05,22.70
2021,06,24,10,06,22.70
2021,06,24,10,07,22.70
2021,06,24,10,08,22.70
2021,06,24,10,09,22.70
2021,06,24,10,10,22.70
2021,06,24,10,11,22.70
2021,06,24,10,12,22.70
2021,06,24,10,13,22.70
2021,06,24,10,14,22.70
2021,06,24,10,15,22.70
2021,06,24,10,16,22.80
2021,06,24,10,17,22.80
2021,06,24,10,18,22.80
2021,06,24,10,19,22.90
2021,06,24,10,20,22.90
2021,06,24,10,21,22.90
2021,06,24,10,22,23.00
2021,06,24,10,23,23.00
2021,06,24,10,24,23.00
2021,06,24,10,25,23.10
2021,06,24,10,26,23.10
2021,06,24,10,27,23.10
2021,06,24,10,28,23.10
2021,06,24,10,29,23.00
2021,06,24,10,30,23.00
2021,06,24,10,31,23.00
2021,06,24,10,32,23.00
2021,06,24,10,33,23.00
2021,06,24,10,34,23.00
2021,06,24,10,35,23.10
2021,06,24,10,36,23.10
2021,06,24,10,37,23.20
2021,06,24,10,38,23.20
2021,06,24,10,39,23.20
2021,06,24,10,40,23.20
2021,06,24,10,41,23.30
2021,06,24,10,42,23.30
2021,06,24,10,43,23.30
2021,06,24,10,44,23.30
2021,06,24,10,45,23.30
2021,06,24,10,46,23.30
2021,06,24,10,47,23.30
2021,06,24,10,48,23.40
2021,06,24,10,49,23.40
2021,06,24,10,50,23.40
2021,06,24,10,51,23.40
2021,06,24,10,52,23.50
2021,06,24,10,53,23.60
2021,06,24,10,54,23.70
2021,06,24,10,55,23.70
2021,06,24,10,56,23.70
2021,06,24,10,57,23.70
2021,06,24,10,58,23.70
2021,06,24,10,59,23.70
2021,06,24,11,00,23.70
2021,06,24,11,01,23.70
2021,06,24,11,02,23.70
2021,06,24,11,03,23.70
2021,06,24,11,04,23.70
2021,06,24,11,05,23.60
2021,06,24,11,06,23.50
2021,06,24,11,07,23.40
2021,06,24,11,08,23.40
2021,06,24,11,09,23.40
2021,06,24,11,10,23.30
2021,06,24,11,11,23.30
2021,06,24,11,12,23.30
2021,06,24,11,13,23.30
2021,06,24,11,14,23.30
2021,06,24,11,15,23.30
2021,06,24,11,16,23.30
2021,06,24,11,17,23.30
2021,06,24,11,18,23.30
2021,06,24,11,19,23.30
2021,06,24,11,20,23.40
2021,06,24,11,21,23.40
2021,06,24,11,22,23.50
2021,06,24,11,23,23.60
2021,06,24,11,24,23.60
2021,06,24,11,25,23.70
2021,06,24,11,26,23.80
2021,06,24,11,27,23.90
2021,06,24,11,28,24.00
2021,06,24,11,29,24.10
2021,06,24,11,30,24.10
2021,06,24,11,31,24.20
2021,06,24,11,32,24.30
2021,06,24,11,33,24.40
2021,06,24,11,34,24.50
2021,06,24,11,35,24.60
2021,06,24,11,36,24.60
2021,06,24,11,37,24.70
2021,06,24,11,38,24.70
2021,06,24,11,39,24.70
2021,06,24,11,40,24.70
2021,06,24,11,41,24.70
2021,06,24,11,42,24.70
2021,06,24,11,43,24.80
2021,06,24,11,44,24.80
2021,06,24,11,45,24.80
2021,06,24,11,46,24.90
2021,06,24,11,47,24.90
2021,06,24,11,48,24.90
2021,06,24,11,49,24.90
2021,06,24,11,50,24.80
2021,06,24,11,51,24.80
2021,06,24,11,52,24.80
2021,06,24,11,53,24.80
2021,06,24,11,54,24.80
2021,06,24,11,55,24.80
2021,06,24,11,56,24.80
2021,06,24,11,57,24.90
2021,06,24,11,58,25.00
2021,06,24,11,59,25.00
2021,06,24,12,00,25.10
2021,06,24,12,01,25.10
2021,06,24,12,02,25.10
2021,06,24,12,03,25.20
2021,06,24,12,04,25.20
2021,06,24,12,05,25.20
2021,06,24,12,06,25.20
2021,06,24,12,07,25.20
2021,06,24,12,08,25.20
2021,06,24,12,09,25.20
2021,06,24,12,10,25.20
2021,06,24,12,11,25.10
2021,06,24,12,12,25.10
2021,06,24,12,13,25.10
2021,06,24,12,14,25.20
2021,06,24,12,15,25.20
2021,06,24,12,16,25.10
2021,06,24,12,17,25.00
2021,06,24,12,18,25.00
2021,06,24,12,19,24.90
2021,06,24,12,20,24.90
2021,06,24,12,21,24.80
2021,06,24,12,22,24.80
2021,06,24,12,23,24.80
2021,06,24,12,24,24.70
2021,06,24,12,25,24.70
2021,06,24,12,26,24.60
2021,06,24,12,27,24.60
2021,06,24,12,28,24.60
2021,06,24,12,29,24.60
2021,06,24,12,30,24.60
2021,06,24,12,31,24.60
2021,06,24,12,32,24.60
2021,06,24,12,33,24.60
2021,06,24,12,34,24.60
2021,06,24,12,35,24.60
2021,06,24,12,36,24.60
2021,06,24,12,37,24.60
2021,06,24,12,38,24.60
2021,06,24,12,39,24.70
2021,06,24,12,40,24.70
2021,06,24,12,41,24.70
2021,06,24,12,42,24.60
2021,06,24,12,43,24.70
2021,06,24,12,44,24.70
2021,06,24,12,45,24.70
2021,06,24,12,46,24.80
2021,06,24,12,47,24.90
2021,06,24,12,48,25.00
2021,06,24,12,49,25.10
2021,06,24,12,50,25.10
2021,06,24,12,51,25.10
2021,06,24,12,52,25.10
2021,06,24,12,53,25.10
2021,06,24,12,54,25.20
2021,06,24,12,55,25.20
2021,06,24,12,56,25.20
2021,06,24,12,57,25.20
2021,06,24,12,58,25.20
2021,06,24,12,59,25.20
2021,06,24,13,00,25.30
2021,06,24,13,01,25.30
2021,06,24,13,02,25.30
2021,06,24,13,03,25.40
2021,06,24,13,04,25.40
2021,06,24,13,05,25.40
2021,06,24,13,06,25.40
2021,06,24,13,07,25.40
2021,06,24,13,08,25.40
2021,06,24,13,09,25.30
2021,06,24,13,10,25.30
2021,06,24,13,11,25.40
2021,06,24,13,12,25.40
2021,06,24,13,13,25.50
2021,06,24,13,14,25.60
2021,06,24,13,15,25.60
2021,06,24,13,16,25.70
2021,06,24,13,17,25.80
2021,06,24,13,18,25.80
2021,06,24,13,19,25.80
2021,06,24,13,20,25.80
2021,06,24,13,21,25.90
2021,06,24,13,22,25.90
2021,06,24,13,23,25.90
2021,06,24,13,24,25.90
2021,06,24,13,25,25.90
2021,06,24,13,26,25.90
2021,06,24,13,27,25.90
2021,06,24,13,28,25.90
2021,06,24,13,29,25.90
2021,06,24,13,30,25.90
2021,06,24,13,31,26.00
2021,06,24,13,32,26.00
2021,06,24,13,33,25.90
2021,06,24,13,34,25.90
2021,06,24,13,35,25.90
2021,06,24,13,36,25.90
2021,06,24,13,37,25.90
2021,06,24,13,38,25.90
2021,06,24,13,39,25.90
2021,06,24,13,40,25.90
2021,06,24,13,41,25.90
2021,06,24,13,42,25.90
2021,06,24,13,43,25.90
2021,06,24,13,44,25.90
2021,06,24,13,45,25.90
2021,06,24,13,46,25.90
2021,06,24,13,47,25.90
2021,06,24,13,48,25.90
2021,06,24,13,49,25.90
2021,06,24,13,50,25.90
2021,06,24,13,51,26.00
2021,06,24,13,52,26.10
2021,06,24,13,53,26.10
2021,06,24,13,54,26.10
2021,06,24,13,55,26.20
2021,06,24,13,56,26.20
2021,06,24,13,57,26.20
2021,06,24,13,58,26.20
2021,06,24,13,59,26.20
2021,06,24,14,00,26.20
2021,06,24,14,01,26.30
2021,06,24,14,02,26.30
2021,06,24,14,03,26.40
2021,06,24,14,04,26.40
2021,06,24,14,05,26.40
2021,06,24,14,06,26.40
2021,06,24,14,07,26.50
2021,06,24,14,08,26.50
2021,06,24,14,09,26.60
2021,06,24,14,10,26.60
2021,06,24,14,11,26.60
2021,06,24,14,12,26.60
2021,06,24,14,13,26.60
2021,06,24,14,14,26.60
2021,06,24,14,15,26.60
2021,06,24,14,16,26.60
2021,06,24,14,17,26.60
2021,06,24,14,18,26.60
2021,06,24,14,19,26.60
2021,06,24,14,20,26.60
2021,06,24,14,21,26.70
2021,06,24,14,22,26.70
2021,06,24,14,23,26.70
2021,06,24,14,24,26.80
2021,06,24,14,25,26.80
2021,06,24,14,26,26.80
2021,06,24,14,27,26.80
2021,06,24,14,28,26.80
2021,06,24,14,29,26.80
2021,06,24,14,30,26.80
2021,06,24,14,31,26.80
2021,06,24,14,32,26.70
2021,06,24,14,33,26.70
2021,06,24,14,34,26.70
2021,06,24,14,35,26.70
2021,06,24,14,36,26.70
2021,06,24,14,37,26.60
2021,06,24,14,38,26.70
2021,06,24,14,39,26.70
2021,06,24,14,40,26.70
2021,06,24,14,41,26.70
2021,06,24,14,42,26.80
2021,06,24,14,43,26.90
2021,06,24,14,44,26.90
2021,06,24,14,45,27.00
2021,06,24,14,46,27.00
2021,06,24,14,47,27.10
2021,06,24,14,48,27.10
2021,06,24,14,49,27.10
2021,06,24,14,50,27.10
2021,06,24,14,51,27.10
2021,06,24,14,52,27.10
2021,06,24,14,53,27.10
2021,06,24,14,54,27.10
2021,06,24,14,55,27.10
2021,06,24,14,56,27.10
2021,06,24,14,57,27.10
2021,06,24,14,58,27.10
2021,06,24,14,59,27.10
2021,06,24,15,00,27.10
2021,06,24,15,01,27.10
2021,06,24,15,02,27.10
2021,06,24,15,03,27.10
2021,06,24,15,04,27.10
2021,06,24,15,05,27.10
2021,06,24,15,06,27.10
2021,06,24,15,07,27.10
2021,06,24,15,08,27.00
2021,06,24,15,09,27.00
2021,06,24,15,10,27.00
2021,06,24,15,11,27.00
2021,06,24,15,12,27.00
2021,06,24,15,13,27.00
2021,06,24,15,14,27.00
2021,06,24,15,15,26.90
2021,06,24,15,16,26.90
2021,06,24,15,17,26.90
2021,06,24,15,18,26.80
2021,06,24,15,19,26.80
2021,06,24,15,20,26.80
2021,06,24,15,21,26.80
2021,06,24,15,22,26.80
2021,06,24,15,23,26.80
2021,06,24,15,24,26.80
2021,06,24,15,25,26.90
2021,06,24,15,26,26.90
2021,06,24,15,27,26.90
2021,06,24,15,28,26.80
2021,06,24,15,29,26.80
2021,06,24,15,30,26.70
2021,06,24,15,31,26.70
2021,06,24,15,32,26.60
2021,06,24,15,33,26.60
2021,06,24,15,34,26.60
2021,06,24,15,35,26.60
2021,06,24,15,36,26.60
2021,06,24,15,37,26.60
2021,06,24,15,38,26.70
2021,06,24,15,39,26.80
2021,06,24,15,40,26.80
2021,06,24,15,41,26.80
2021,06,24,15,42,26.90
2021,06,24,15,43,26.90
2021,06,24,15,44,26.90
2021,06,24,15,45,26.90
2021,06,24,15,46,27.00
2021,06,24,15,47,27.00
2021,06,24,15,48,27.00
2021,06,24,15,49,27.10
2021,06,24,15,50,27.10
2021,06,24,15,51,27.10
2021,06,24,15,52,27.20
2021,06,24,15,53,27.20
2021,06,24,15,54,27.30
2021,06,24,15,55,27.30
2021,06,24,15,56,27.30
2021,06,24,15,57,27.40
2021,06,24,15,58,27.40
2021,06,24,15,59,27.40
2021,06,24,16,00,27.40
2021,06,24,16,01,27.50
2021,06,24,16,02,27.50
2021,06,24,16,03,27.50
2021,06,24,16,04,27.50
2021,06,24,16,05,27.50
2021,06,24,16,06,27.40
2021,06,24,16,07,27.40
2021,06,24,16,08,27.40
2021,06,24,16,09,27.40
2021,06,24,16,10,27.40
2021,06,24,16,11,27.40
2021,06,24,16,12,27.40
2021,06,24,16,13,27.40
2021,06,24,16,14,27.40
2021,06,24,16,15,27.50
2021,06,24,16,16,27.50
2021,06,24,16,17,27.40
2021,06,24,16,18,27.40
2021,06,24,16,19,27.40
2021,06,24,16,20,27.40
2021,06,24,16,21,27.40
2021,06,24,16,22,27.40
2021,06,24,16,23,27.40
2021,06,24,16,24,27.50
2021,06,24,16,25,27.50
2021,06,24,16,26,27.50
2021,06,24,16,27,27.60
2021,06,24,16,28,27.60
2021,06,24,16,29,27.60
2021,06,24,16,30,27.60
2021,06,24,16,31,27.60
2021,06,24,16,32,27.60
2021,06,24,16,33,27.60
2021,06,24,16,34,27.60
2021,06,24,16,35,27.60
2021,06,24,16,36,27.60
2021,06,24,16,37,27.60
2021,06,24,16,38,27.60
2021,06,24,16,39,27.60
2021,06,24,16,40,27.50
2021,06,24,16,41,27.50
2021,06,24,16,42,27.50
2021,06,24,16,43,27.40
2021,06,24,16,44,27.40
2021,06,24,16,45,27.40
2021,06,24,16,46,27.40
2021,06,24,16,47,27.40
2021,06,24,16,48,27.40
2021,06,24,16,49,27.50
2021,06,24,16,50,27.50
2021,06,24,16,51,27.50
2021,06,24,16,52,27.50
2021,06,24,16,53,27.50
2021,06,24,16,54,27.50
2021,06,24,16,55,27.50
2021,06,24,16,56,27.50
2021,06,24,16,57,27.50
2021,06,24,16,58,27.50
2021,06,24,16,59,27.50
2021,06,24,17,00,27.60
2021,06,24,17,01,27.60
2021,06,24,17,02,27.60
2021,06,24,17,03,27.60
2021,06,24,17,04,27.60
2021,06,24,17,05,27.70
2021,06,24,17,06,27.70
2021,06,24,17,07,27.70
2021,06,24,17,08,27.70
2021,06,24,17,09,27.70
2021,06,24,17,10,27.70
2021,06,24,17,11,27.60
2021,06,24,17,12,27.60
2021,06,24,17,13,27.60
2021,06,24,17,14,27.60
2021,06,24,17,15,27.60
2021,06,24,17,16,27.60
2021,06,24,17,17,27.70
2021,06,24,17,18,27.70
2021,06,24,17,19,27.70